^^
Your Local Weather - Clay, NY Station Historical Data
Daily Summary for March 15, 2017 Units:  Metric    English   Both
« Previous Day
Next Day »
Daily Weekly Monthly Yearly Custom
  High: Low: Average:
Temperature: -5 °C -9.4 °C -7.6 °C
Dew Point: -6.4 °C -10.9 °C -9 °C
Humidity: 91% 89% 90%
Wind Speed: 12.9km/h 1.6km/h 5.8km/h
Wind Gust: 25.7km/h - -
Wind- - NW
Pressure: 1010 hPa 1001.2 hPa -
Precipitation: 0 mm    
Historical Graphs
 
 
Tabular Data for March 15, 2017
Time Temperature Dew Point Pressure Wind Wind Speed Wind Gust Humidity Rainfall Rate (Hourly) solar
00:00 -8.7 °C -10.2 °C 1004.3 hPa NW 8 km/h 8 km/h 89% 0 mm 0 W/m2
00:06 -8.7 °C -10.2 °C 1003.9 hPa NW 4.8 km/h 8 km/h 89% 0 mm 0 W/m2
00:12 -8.8 °C -10.3 °C 1003.9 hPa NW 4.8 km/h 6.4 km/h 89% 0 mm 0 W/m2
00:18 -8.8 °C -10.3 °C 1003.9 hPa NW 8 km/h 8 km/h 89% 0 mm 0 W/m2
00:24 -8.8 °C -10.3 °C 1003.9 hPa NNW 6.4 km/h 11.3 km/h 89% 0 mm 0 W/m2
00:30 -8.8 °C -10.3 °C 1003.9 hPa NNW 8 km/h 8 km/h 89% 0 mm 0 W/m2
00:36 -8.8 °C -10.3 °C 1003.6 hPa NW 8 km/h 8 km/h 89% 0 mm 0 W/m2
00:42 -8.8 °C -10.3 °C 1003.6 hPa NW 6.4 km/h 6.4 km/h 89% 0 mm 0 W/m2
00:48 -8.8 °C -10.3 °C 1003.6 hPa NW 6.4 km/h 9.7 km/h 89% 0 mm 0 W/m2
00:54 -8.8 °C -10.3 °C 1003.6 hPa NW 6.4 km/h 8 km/h 89% 0 mm 0 W/m2
01:00 -8.8 °C -10.3 °C 1003.6 hPa NW 6.4 km/h 6.4 km/h 89% 0 mm 0 W/m2
01:06 -8.8 °C -10.3 °C 1003.6 hPa WNW 6.4 km/h 9.7 km/h 89% 0 mm 0 W/m2
01:18 -8.8 °C -10.3 °C 1003.3 hPa NW 8 km/h 12.9 km/h 89% 0 mm 0 W/m2
01:24 -8.8 °C -10.3 °C 1003.3 hPa NNW 6.4 km/h 8 km/h 89% 0 mm 0 W/m2
01:30 -8.9 °C -10.4 °C 1003.3 hPa NW 4.8 km/h 9.7 km/h 89% 0 mm 0 W/m2
01:36 -8.9 °C -10.4 °C 1003.6 hPa NNW 6.4 km/h 9.7 km/h 89% 0 mm 0 W/m2
01:42 -8.9 °C -10.4 °C 1003.3 hPa NW 4.8 km/h 6.4 km/h 89% 0 mm 0 W/m2
01:48 -8.9 °C -10.4 °C 1003.3 hPa NNW 3.2 km/h 6.4 km/h 89% 0 mm 0 W/m2
01:54 -8.9 °C -10.4 °C 1003.3 hPa NW 3.2 km/h 4.8 km/h 89% 0 mm 0 W/m2
02:00 -9 °C -10.5 °C 1003.3 hPa NW 3.2 km/h 4.8 km/h 89% 0 mm 0 W/m2
02:06 -9 °C -10.5 °C 1002.9 hPa NNW 3.2 km/h 11.3 km/h 89% 0 mm 0 W/m2
02:12 -9.1 °C -10.6 °C 1002.9 hPa NW 4.8 km/h 4.8 km/h 89% 0 mm 0 W/m2
02:18 -9.1 °C -10.6 °C 1002.9 hPa NW 3.2 km/h 8 km/h 89% 0 mm 0 W/m2
02:26 -9.1 °C -10.6 °C 1002.9 hPa NW 4.8 km/h 4.8 km/h 89% 0 mm 0 W/m2
02:32 -9.1 °C -10.6 °C 1002.9 hPa NW 3.2 km/h 4.8 km/h 89% 0 mm 0 W/m2
02:38 -9.1 °C -10.6 °C 1002.9 hPa NW 3.2 km/h 4.8 km/h 89% 0 mm 0 W/m2
02:44 -9.1 °C -10.6 °C 1002.6 hPa NNW 4.8 km/h 4.8 km/h 89% 0 mm 0 W/m2
02:50 -9.1 °C -10.6 °C 1002.6 hPa NNW 3.2 km/h 3.2 km/h 89% 0 mm 0 W/m2
02:56 -9.1 °C -10.6 °C 1002.6 hPa NW 1.6 km/h 8 km/h 89% 0 mm 0 W/m2
03:14 -9.2 °C -10.7 °C 1002.3 hPa WNW 3.2 km/h 4.8 km/h 89% 0 mm 0 W/m2
03:20 -9.2 °C -10.7 °C 1002.3 hPa WSW 3.2 km/h 9.7 km/h 89% 0 mm 0 W/m2
03:26 -9.2 °C -10.7 °C 1002.3 hPa NW 3.2 km/h 9.7 km/h 89% 0 mm 0 W/m2
03:32 -9.2 °C -10.7 °C 1002.3 hPa WNW 3.2 km/h 4.8 km/h 89% 0 mm 0 W/m2
03:38 -9.2 °C -10.7 °C 1002.3 hPa WNW 1.6 km/h 4.8 km/h 89% 0 mm 0 W/m2
03:44 -9.2 °C -10.7 °C 1001.9 hPa WNW 1.6 km/h 3.2 km/h 89% 0 mm 0 W/m2
03:50 -9.2 °C -10.7 °C 1001.9 hPa NW 1.6 km/h 1.6 km/h 89% 0 mm 0 W/m2
03:56 -9.2 °C -10.7 °C 1001.9 hPa WNW 3.2 km/h 6.4 km/h 89% 0 mm 0 W/m2
04:02 -9.2 °C -10.7 °C 1001.9 hPa WNW 3.2 km/h 4.8 km/h 89% 0 mm 0 W/m2
04:08 -9.2 °C -10.7 °C 1001.9 hPa WNW 3.2 km/h 4.8 km/h 89% 0 mm 0 W/m2
04:14 -9.3 °C -10.8 °C 1001.9 hPa WNW 3.2 km/h 4.8 km/h 89% 0 mm 0 W/m2
04:20 -9.3 °C -10.8 °C 1001.9 hPa WNW 3.2 km/h 4.8 km/h 89% 0 mm 0 W/m2
04:26 -9.3 °C -10.8 °C 1001.9 hPa WNW 3.2 km/h 4.8 km/h 89% 0 mm 0 W/m2
04:32 -9.3 °C -10.8 °C 1001.6 hPa WNW 4.8 km/h 6.4 km/h 89% 0 mm 0 W/m2
04:38 -9.3 °C -10.8 °C 1001.6 hPa WNW 4.8 km/h 6.4 km/h 89% 0 mm 0 W/m2
04:44 -9.3 °C -10.8 °C 1001.6 hPa NW 4.8 km/h 6.4 km/h 89% 0 mm 0 W/m2
04:50 -9.4 °C -10.9 °C 1001.6 hPa WNW 4.8 km/h 8 km/h 89% 0 mm 0 W/m2
04:56 -9.4 °C -10.9 °C 1001.6 hPa WNW 4.8 km/h 11.3 km/h 89% 0 mm 0 W/m2
05:02 -9.4 °C -10.9 °C 1001.6 hPa NNW 4.8 km/h 4.8 km/h 89% 0 mm 0 W/m2
05:08 -9.4 °C -10.9 °C 1001.6 hPa NW 4.8 km/h 4.8 km/h 89% 0 mm 0 W/m2
05:14 -9.4 °C -10.9 °C 1001.6 hPa NW 4.8 km/h 4.8 km/h 89% 0 mm 0 W/m2
05:20 -9.4 °C -10.9 °C 1001.2 hPa NW 4.8 km/h 4.8 km/h 89% 0 mm 0 W/m2
05:26 -9.4 °C -10.9 °C 1001.2 hPa WNW 3.2 km/h 4.8 km/h 89% 0 mm 0 W/m2
05:32 -9.4 °C -10.9 °C 1001.2 hPa WNW 1.6 km/h 1.6 km/h 89% 0 mm 0 W/m2
05:38 -9.4 °C -10.9 °C 1001.2 hPa NNW 1.6 km/h 3.2 km/h 89% 0 mm 0 W/m2
05:44 -9.4 °C -10.9 °C 1001.2 hPa NW 3.2 km/h 4.8 km/h 89% 0 mm 0 W/m2
05:50 -9.4 °C -10.9 °C 1001.2 hPa NW 3.2 km/h 3.2 km/h 89% 0 mm 0 W/m2
05:56 -9.3 °C -10.8 °C 1001.2 hPa NW 4.8 km/h 4.8 km/h 89% 0 mm 0 W/m2
06:02 -9.3 °C -10.8 °C 1001.2 hPa WNW 3.2 km/h 4.8 km/h 89% 0 mm 0 W/m2
06:08 -9.3 °C -10.8 °C 1001.2 hPa NW 3.2 km/h 4.8 km/h 89% 0 mm 0 W/m2
06:14 -9.3 °C -10.8 °C 1001.2 hPa NW 3.2 km/h 3.2 km/h 89% 0 mm 0 W/m2
06:20 -9.2 °C -10.7 °C 1001.2 hPa WNW 3.2 km/h 3.2 km/h 89% 0 mm 0 W/m2
06:26 -9.2 °C -10.7 °C 1001.2 hPa NW 4.8 km/h 6.4 km/h 89% 0 mm 0 W/m2
06:32 -9.2 °C -10.7 °C 1001.2 hPa WNW 4.8 km/h 4.8 km/h 89% 0 mm 0 W/m2
06:38 -9.2 °C -10.7 °C 1001.2 hPa West 3.2 km/h 6.4 km/h 89% 0 mm 0 W/m2
06:44 -9.2 °C -10.7 °C 1001.2 hPa WNW 3.2 km/h 3.2 km/h 89% 0 mm 0 W/m2
06:50 -9.2 °C -10.7 °C 1001.2 hPa WNW 3.2 km/h 3.2 km/h 89% 0 mm 0 W/m2
06:56 -9.2 °C -10.7 °C 1001.2 hPa WNW 4.8 km/h 4.8 km/h 89% 0 mm 0 W/m2
07:02 -9.3 °C -10.8 °C 1001.2 hPa WNW 3.2 km/h 9.7 km/h 89% 0 mm 0 W/m2
07:08 -9.3 °C -10.8 °C 1001.2 hPa WNW 4.8 km/h 12.9 km/h 89% 0 mm 0 W/m2
07:14 -9.3 °C -10.8 °C 1001.2 hPa NW 6.4 km/h 8 km/h 89% 0 mm 0 W/m2
07:20 -9.3 °C -10.8 °C 1001.2 hPa WNW 4.8 km/h 4.8 km/h 89% 0 mm 0 W/m2
07:26 -9.3 °C -10.8 °C 1001.2 hPa NW 4.8 km/h 9.7 km/h 89% 0 mm 0 W/m2
07:32 -9.3 °C -10.8 °C 1001.2 hPa NW 4.8 km/h 4.8 km/h 89% 0 mm 0 W/m2
07:38 -9.3 °C -10.8 °C 1001.2 hPa WNW 3.2 km/h 6.4 km/h 89% 0 mm 0 W/m2
07:44 -9.3 °C -10.8 °C 1001.2 hPa NW 3.2 km/h 8 km/h 89% 0 mm 5 W/m2
07:50 -9.3 °C -10.8 °C 1001.2 hPa NW 1.6 km/h 3.2 km/h 89% 0 mm 7 W/m2
07:56 -9.3 °C -10.8 °C 1001.2 hPa WNW 3.2 km/h 4.8 km/h 89% 0 mm 11 W/m2
08:02 -9.3 °C -10.8 °C 1001.6 hPa WNW 4.8 km/h 6.4 km/h 89% 0 mm 12 W/m2
08:08 -9.2 °C -10.7 °C 1001.2 hPa NW 4.8 km/h 8 km/h 89% 0 mm 12 W/m2
08:14 -9.2 °C -10.7 °C 1001.2 hPa WNW 3.2 km/h 4.8 km/h 89% 0 mm 16 W/m2
08:20 -9.2 °C -10.7 °C 1001.2 hPa NW 3.2 km/h 3.2 km/h 89% 0 mm 18 W/m2
08:26 -9.2 °C -10.7 °C 1001.2 hPa WNW 3.2 km/h 4.8 km/h 89% 0 mm 18 W/m2
08:32 -9.1 °C -10.6 °C 1001.2 hPa WNW 3.2 km/h 3.2 km/h 89% 0 mm 21 W/m2
08:38 -9.1 °C -10.6 °C 1001.2 hPa WNW 3.2 km/h 8 km/h 89% 0 mm 21 W/m2
08:44 -9.1 °C -10.6 °C 1001.2 hPa WNW 3.2 km/h 4.8 km/h 89% 0 mm 21 W/m2
08:50 -9.1 °C -10.6 °C 1001.2 hPa WNW 3.2 km/h 4.8 km/h 89% 0 mm 25 W/m2
08:56 -9.1 °C -10.6 °C 1001.2 hPa NW 4.8 km/h 6.4 km/h 89% 0 mm 26 W/m2
09:02 -9 °C -10.5 °C 1001.2 hPa WNW 4.8 km/h 4.8 km/h 89% 0 mm 25 W/m2
09:08 -8.9 °C -10.4 °C 1001.2 hPa NW 3.2 km/h 4.8 km/h 89% 0 mm 32 W/m2
09:14 -8.9 °C -10.4 °C 1001.6 hPa WNW 4.8 km/h 6.4 km/h 89% 0 mm 37 W/m2
09:20 -8.9 °C -10.4 °C 1001.2 hPa West 4.8 km/h 9.7 km/h 89% 0 mm 37 W/m2
09:26 -8.9 °C -10.4 °C 1001.2 hPa WNW 4.8 km/h 9.7 km/h 89% 0 mm 35 W/m2
09:32 -8.8 °C -10.3 °C 1001.6 hPa NW 4.8 km/h 4.8 km/h 89% 0 mm 42 W/m2
09:38 -8.8 °C -10.3 °C 1001.2 hPa NW 4.8 km/h 4.8 km/h 89% 0 mm 47 W/m2
09:44 -8.7 °C -10.2 °C 1001.2 hPa WNW 4.8 km/h 6.4 km/h 89% 0 mm 51 W/m2
09:56 -8.6 °C -10.1 °C 1001.6 hPa NW 3.2 km/h 11.3 km/h 89% 0 mm 39 W/m2
10:02 -8.6 °C -10.1 °C 1001.2 hPa WNW 4.8 km/h 4.8 km/h 89% 0 mm 42 W/m2
10:08 -8.6 °C -10.1 °C 1001.2 hPa WNW 4.8 km/h 11.3 km/h 89% 0 mm 51 W/m2
10:14 -8.6 °C -10.1 °C 1001.2 hPa NW 4.8 km/h 6.4 km/h 89% 0 mm 56 W/m2
10:20 -8.5 °C -10 °C 1001.2 hPa NW 4.8 km/h 9.7 km/h 89% 0 mm 56 W/m2
10:26 -8.5 °C -10 °C 1001.6 hPa WNW 6.4 km/h 9.7 km/h 89% 0 mm 54 W/m2
10:32 -8.4 °C -9.9 °C 1001.6 hPa WNW 4.8 km/h 8 km/h 89% 0 mm 49 W/m2
10:38 -8.3 °C -9.8 °C 1001.6 hPa WNW 4.8 km/h 8 km/h 89% 0 mm 51 W/m2
10:44 -8.3 °C -9.8 °C 1001.6 hPa NW 4.8 km/h 4.8 km/h 89% 0 mm 58 W/m2
10:50 -8.3 °C -9.8 °C 1001.6 hPa WNW 6.4 km/h 6.4 km/h 89% 0 mm 53 W/m2
10:56 -8.2 °C -9.7 °C 1001.6 hPa WNW 4.8 km/h 6.4 km/h 89% 0 mm 58 W/m2
11:02 -8.2 °C -9.7 °C 1001.6 hPa NW 4.8 km/h 11.3 km/h 89% 0 mm 53 W/m2
11:08 -8.2 °C -9.7 °C 1001.6 hPa WNW 4.8 km/h 11.3 km/h 89% 0 mm 53 W/m2
11:14 -8.2 °C -9.7 °C 1001.9 hPa WNW 4.8 km/h 6.4 km/h 89% 0 mm 53 W/m2
11:20 -8.2 °C -9.7 °C 1001.9 hPa NW 6.4 km/h 6.4 km/h 89% 0 mm 63 W/m2
11:26 -8.1 °C -9.6 °C 1001.9 hPa NW 6.4 km/h 11.3 km/h 89% 0 mm 67 W/m2
11:32 -8.1 °C -9.6 °C 1001.9 hPa WNW 4.8 km/h 6.4 km/h 89% 0 mm 60 W/m2
11:38 -7.9 °C -9.3 °C 1001.9 hPa WNW 4.8 km/h 8 km/h 90% 0 mm 60 W/m2
11:44 -7.9 °C -9.3 °C 1001.9 hPa NNW 4.8 km/h 6.4 km/h 90% 0 mm 65 W/m2
11:50 -8 °C -9.3 °C 1001.9 hPa NW 6.4 km/h 6.4 km/h 90% 0 mm 62 W/m2
11:56 -7.9 °C -9.3 °C 1001.9 hPa NW 4.8 km/h 8 km/h 90% 0 mm 58 W/m2
12:02 -7.9 °C -9.3 °C 1001.9 hPa WNW 4.8 km/h 4.8 km/h 90% 0 mm 62 W/m2
12:08 -7.8 °C -9.3 °C 1001.9 hPa NW 6.4 km/h 14.5 km/h 89% 0 mm 70 W/m2
12:14 -7.8 °C -9.3 °C 1001.9 hPa WNW 6.4 km/h 9.7 km/h 89% 0 mm 69 W/m2
12:20 -7.8 °C -9.3 °C 1001.9 hPa WNW 4.8 km/h 8 km/h 89% 0 mm 67 W/m2
12:26 -7.7 °C -9.2 °C 1001.9 hPa WNW 4.8 km/h 11.3 km/h 89% 0 mm 67 W/m2
12:32 -7.7 °C -9.2 °C 1001.9 hPa WNW 4.8 km/h 9.7 km/h 89% 0 mm 76 W/m2
12:38 -7.7 °C -9 °C 1001.9 hPa WNW 4.8 km/h 9.7 km/h 90% 0 mm 86 W/m2
12:44 -7.6 °C -8.9 °C 1002.3 hPa NW 6.4 km/h 6.4 km/h 90% 0 mm 84 W/m2
12:50 -7.5 °C -8.8 °C 1002.3 hPa NW 6.4 km/h 6.4 km/h 90% 0 mm 76 W/m2
12:56 -7.4 °C -8.8 °C 1002.3 hPa NNW 6.4 km/h 11.3 km/h 90% 0 mm 74 W/m2
13:02 -7.4 °C -8.8 °C 1002.3 hPa WNW 6.4 km/h 9.7 km/h 90% 0 mm 86 W/m2
13:08 -7.4 °C -8.8 °C 1002.3 hPa WNW 6.4 km/h 9.7 km/h 90% 0 mm 91 W/m2
13:14 -7.4 °C -8.7 °C 1002.3 hPa NW 6.4 km/h 8 km/h 90% 0 mm 90 W/m2
13:20 -7.2 °C -8.6 °C 1002.3 hPa NNW 6.4 km/h 14.5 km/h 90% 0 mm 76 W/m2
13:26 -7.2 °C -8.5 °C 1002.3 hPa NNW 6.4 km/h 14.5 km/h 90% 0 mm 102 W/m2
13:32 -7.1 °C -8.4 °C 1002.3 hPa NW 4.8 km/h 6.4 km/h 90% 0 mm 69 W/m2
13:38 -7 °C -8.4 °C 1002.3 hPa NW 6.4 km/h 6.4 km/h 90% 0 mm 90 W/m2
13:44 -7.1 °C -8.4 °C 1002.3 hPa NW 6.4 km/h 9.7 km/h 90% 0 mm 81 W/m2
13:50 -7.1 °C -8.5 °C 1002.3 hPa WNW 8 km/h 8 km/h 90% 0 mm 102 W/m2
13:56 -7.1 °C -8.5 °C 1002.6 hPa NW 8 km/h 11.3 km/h 90% 0 mm 98 W/m2
14:02 -7 °C -8.4 °C 1002.6 hPa NW 6.4 km/h 6.4 km/h 90% 0 mm 86 W/m2
14:08 -6.9 °C -8.3 °C 1002.6 hPa NW 8 km/h 8 km/h 90% 0 mm 84 W/m2
14:14 -6.9 °C -8.3 °C 1002.6 hPa WNW 9.7 km/h 9.7 km/h 90% 0 mm 79 W/m2
14:20 -7.1 °C -8.5 °C 1002.6 hPa NNW 9.7 km/h 9.7 km/h 90% 0 mm 81 W/m2
14:26 -7 °C -8.4 °C 1002.6 hPa NW 6.4 km/h 12.9 km/h 90% 0 mm 102 W/m2
14:32 -6.8 °C -8.2 °C 1002.6 hPa WNW 6.4 km/h 9.7 km/h 90% 0 mm 105 W/m2
14:38 -6.7 °C -8.1 °C 1002.9 hPa NW 8 km/h 16.1 km/h 90% 0 mm 74 W/m2
14:44 -6.8 °C -8.2 °C 1002.9 hPa NNW 8 km/h 11.3 km/h 90% 0 mm 54 W/m2
14:50 -6.8 °C -8.2 °C 1002.9 hPa NW 6.4 km/h 6.4 km/h 90% 0 mm 90 W/m2
14:56 -6.7 °C -8.1 °C 1002.9 hPa NNW 6.4 km/h 9.7 km/h 90% 0 mm 77 W/m2
15:02 -6.7 °C -8.1 °C 1002.9 hPa West 8 km/h 11.3 km/h 90% 0 mm 60 W/m2
15:08 -6.8 °C -8.2 °C 1002.9 hPa WNW 6.4 km/h 11.3 km/h 90% 0 mm 53 W/m2
15:14 -6.7 °C -8.1 °C 1003.3 hPa WNW 8 km/h 14.5 km/h 90% 0 mm 70 W/m2
15:20 -6.7 °C -8.1 °C 1003.3 hPa NW 8 km/h 8 km/h 90% 0 mm 91 W/m2
15:26 -6.6 °C -8 °C 1003.3 hPa WNW 6.4 km/h 9.7 km/h 90% 0 mm 74 W/m2
15:32 -6.6 °C -7.9 °C 1003.3 hPa WNW 9.7 km/h 9.7 km/h 90% 0 mm 76 W/m2
15:38 -6.6 °C -7.9 °C 1003.6 hPa NW 9.7 km/h 14.5 km/h 90% 0 mm 70 W/m2
15:44 -6.7 °C -8.1 °C 1003.6 hPa NW 11.3 km/h 25.7 km/h 90% 0 mm 54 W/m2
15:50 -6.7 °C -8.1 °C 1003.9 hPa NW 8 km/h 17.7 km/h 90% 0 mm 67 W/m2
15:56 -6.7 °C -8.1 °C 1003.9 hPa NW 9.7 km/h 17.7 km/h 90% 0 mm 70 W/m2
16:02 -6.7 °C -8.1 °C 1003.9 hPa NW 8 km/h 8 km/h 90% 0 mm 56 W/m2
16:08 -6.7 °C -8.1 °C 1004.3 hPa WNW 8 km/h 19.3 km/h 90% 0 mm 62 W/m2
16:14 -6.8 °C -8.2 °C 1003.9 hPa NW 9.7 km/h 14.5 km/h 90% 0 mm 51 W/m2
16:20 -6.8 °C -8.2 °C 1004.3 hPa West 8 km/h 17.7 km/h 90% 0 mm 32 W/m2
16:26 -6.9 °C -8.3 °C 1004.3 hPa NW 9.7 km/h 17.7 km/h 90% 0 mm 30 W/m2
16:32 -6.9 °C -8.3 °C 1004.3 hPa WNW 8 km/h 9.7 km/h 90% 0 mm 33 W/m2
16:38 -6.9 °C -8.3 °C 1004.3 hPa WNW 4.8 km/h 9.7 km/h 90% 0 mm 33 W/m2
16:44 -6.9 °C -8.3 °C 1004.6 hPa NW 6.4 km/h 8 km/h 90% 0 mm 47 W/m2
16:50 -6.8 °C -8.2 °C 1004.6 hPa NW 6.4 km/h 6.4 km/h 90% 0 mm 42 W/m2
16:56 -6.7 °C -8.1 °C 1004.6 hPa NW 6.4 km/h 9.7 km/h 90% 0 mm 39 W/m2
17:02 -6.6 °C -7.9 °C 1005 hPa NW 4.8 km/h 6.4 km/h 90% 0 mm 26 W/m2
17:08 -6.5 °C -7.9 °C 1005 hPa WNW 8 km/h 14.5 km/h 90% 0 mm 35 W/m2
17:14 -6.5 °C -7.9 °C 1005 hPa WNW 9.7 km/h 11.3 km/h 90% 0 mm 28 W/m2
17:20 -6.6 °C -7.9 °C 1005 hPa NW 8 km/h 8 km/h 90% 0 mm 37 W/m2
17:26 -6.5 °C -7.9 °C 1005 hPa WNW 6.4 km/h 11.3 km/h 90% 0 mm 26 W/m2
17:32 -6.4 °C -7.8 °C 1005.3 hPa WNW 4.8 km/h 4.8 km/h 90% 0 mm 26 W/m2
17:38 -6.4 °C -7.8 °C 1005.3 hPa West 4.8 km/h 6.4 km/h 90% 0 mm 28 W/m2
17:44 -6.3 °C -7.7 °C 1005.3 hPa WNW 6.4 km/h 25.7 km/h 90% 0 mm 26 W/m2
17:50 -6.3 °C -7.5 °C 1005.6 hPa WNW 8 km/h 8 km/h 91% 0 mm 21 W/m2
17:56 -6.3 °C -7.5 °C 1005.6 hPa WNW 6.4 km/h 9.7 km/h 91% 0 mm 23 W/m2
18:02 -6.2 °C -7.4 °C 1005.6 hPa WNW 8 km/h 9.7 km/h 91% 0 mm 19 W/m2
18:08 -6.2 °C -7.4 °C 1005.6 hPa WNW 6.4 km/h 9.7 km/h 91% 0 mm 14 W/m2
18:14 -6.2 °C -7.4 °C 1005.6 hPa NW 6.4 km/h 11.3 km/h 91% 0 mm 16 W/m2
18:20 -6.2 °C -7.4 °C 1006 hPa NW 6.4 km/h 6.4 km/h 91% 0 mm 12 W/m2
18:26 -6.2 °C -7.4 °C 1006 hPa NW 4.8 km/h 11.3 km/h 91% 0 mm 9 W/m2
18:32 -6.2 °C -7.4 °C 1006 hPa NW 4.8 km/h 11.3 km/h 91% 0 mm 12 W/m2
18:38 -6.1 °C -7.3 °C 1006.3 hPa WNW 4.8 km/h 11.3 km/h 91% 0 mm 9 W/m2
18:46 -6.1 °C -7.3 °C 1006.3 hPa NW 4.8 km/h 6.4 km/h 91% 0 mm 7 W/m2
18:52 -6 °C -7.2 °C 1006.7 hPa WNW 4.8 km/h 6.4 km/h 91% 0 mm 7 W/m2
18:58 -5.9 °C -7.2 °C 1006.7 hPa WNW 4.8 km/h 6.4 km/h 91% 0 mm 0 W/m2
19:04 -5.9 °C -7.1 °C 1006.7 hPa NW 4.8 km/h 9.7 km/h 91% 0 mm 0 W/m2
19:10 -5.9 °C -7.1 °C 1007 hPa NW 4.8 km/h 4.8 km/h 91% 0 mm 0 W/m2
19:16 -5.8 °C -7.1 °C 1007 hPa NNW 6.4 km/h 6.4 km/h 91% 0 mm 0 W/m2
19:22 -5.8 °C -7 °C 1007 hPa NW 6.4 km/h 11.3 km/h 91% 0 mm 0 W/m2
19:28 -5.8 °C -7 °C 1007 hPa NW 6.4 km/h 14.5 km/h 91% 0 mm 0 W/m2
19:34 -5.7 °C -6.9 °C 1007 hPa WNW 6.4 km/h 9.7 km/h 91% 0 mm 0 W/m2
19:40 -5.7 °C -6.9 °C 1007.3 hPa WNW 6.4 km/h 6.4 km/h 91% 0 mm 0 W/m2
19:46 -5.7 °C -6.9 °C 1007.3 hPa WNW 6.4 km/h 9.7 km/h 91% 0 mm 0 W/m2
19:52 -5.7 °C -6.9 °C 1007.3 hPa NW 4.8 km/h 6.4 km/h 91% 0 mm 0 W/m2
19:58 -5.7 °C -6.9 °C 1007.3 hPa NW 4.8 km/h 8 km/h 91% 0 mm 0 W/m2
20:04 -5.6 °C -6.8 °C 1007.7 hPa NNW 6.4 km/h 12.9 km/h 91% 0 mm 0 W/m2
20:10 -5.6 °C -6.8 °C 1007.7 hPa NNW 6.4 km/h 6.4 km/h 91% 0 mm 0 W/m2
20:16 -5.6 °C -6.8 °C 1007.7 hPa WNW 4.8 km/h 6.4 km/h 91% 0 mm 0 W/m2
20:18 -5.5 °C -6.7 °C 1007.7 hPa WNW 4.8 km/h 6.4 km/h 91% 0 mm 0 W/m2
20:24 -5.4 °C -6.7 °C 1007.7 hPa WNW 4.8 km/h 4.8 km/h 91% 0 mm 0 W/m2
20:30 -5.4 °C -6.6 °C 1007.7 hPa NNW 3.2 km/h 3.2 km/h 91% 0 mm 0 W/m2
20:36 -5.3 °C -6.6 °C 1007.7 hPa NW 6.4 km/h 16.1 km/h 91% 0 mm 0 W/m2
20:42 -5.2 °C -6.4 °C 1007.7 hPa WNW 8 km/h 8 km/h 91% 0 mm 0 W/m2
20:48 -5.2 °C -6.4 °C 1008 hPa NW 6.4 km/h 8 km/h 91% 0 mm 0 W/m2
20:54 -5.2 °C -6.6 °C 1008 hPa NW 6.4 km/h 6.4 km/h 90% 0 mm 0 W/m2
21:00 -5.1 °C -6.5 °C 1008 hPa NW 8 km/h 8 km/h 90% 0 mm 0 W/m2
21:08 -5.1 °C -6.4 °C 1008.4 hPa NNW 9.7 km/h 14.5 km/h 90% 0 mm 0 W/m2
21:14 -5 °C -6.4 °C 1008.4 hPa West 8 km/h 19.3 km/h 90% 0 mm 0 W/m2
21:20 -5.1 °C -6.5 °C 1008.4 hPa NNW 9.7 km/h 9.7 km/h 90% 0 mm 0 W/m2
21:26 -5.2 °C -6.6 °C 1008.7 hPa NNW 11.3 km/h 12.9 km/h 90% 0 mm 0 W/m2
21:32 -5.2 °C -6.6 °C 1008.7 hPa NNW 12.9 km/h 12.9 km/h 90% 0 mm 0 W/m2
21:38 -5.3 °C -6.7 °C 1008.7 hPa NW 11.3 km/h 14.5 km/h 90% 0 mm 0 W/m2
21:44 -5.4 °C -6.8 °C 1008.7 hPa NW 11.3 km/h 17.7 km/h 90% 0 mm 0 W/m2
21:50 -5.3 °C -6.7 °C 1008.7 hPa WNW 9.7 km/h 9.7 km/h 90% 0 mm 0 W/m2
21:56 -5.3 °C -6.7 °C 1009 hPa NW 8 km/h 11.3 km/h 90% 0 mm 0 W/m2
22:02 -5.3 °C -6.7 °C 1009 hPa WNW 8 km/h 20.9 km/h 90% 0 mm 0 W/m2
22:08 -5.3 °C -6.7 °C 1009 hPa NNW 9.7 km/h 20.9 km/h 90% 0 mm 0 W/m2
22:14 -5.3 °C -6.7 °C 1009 hPa NW 8 km/h 9.7 km/h 90% 0 mm 0 W/m2
22:20 -5.3 °C -6.7 °C 1009.4 hPa WNW 8 km/h 8 km/h 90% 0 mm 0 W/m2
22:26 -5.3 °C -6.7 °C 1009.4 hPa NW 8 km/h 8 km/h 90% 0 mm 0 W/m2
22:32 -5.3 °C -6.7 °C 1009.4 hPa NW 8 km/h 8 km/h 90% 0 mm 0 W/m2
22:38 -5.4 °C -6.8 °C 1009.7 hPa NNW 9.7 km/h 9.7 km/h 90% 0 mm 0 W/m2
22:44 -5.4 °C -6.8 °C 1009.7 hPa NW 11.3 km/h 16.1 km/h 90% 0 mm 0 W/m2
22:50 -5.4 °C -6.8 °C 1009.7 hPa North 11.3 km/h 12.9 km/h 90% 0 mm 0 W/m2
22:56 -5.6 °C -7.1 °C 1009.7 hPa NNW 11.3 km/h 12.9 km/h 89% 0 mm 0 W/m2
23:02 -5.6 °C -7.1 °C 1009.7 hPa NW 11.3 km/h 11.3 km/h 89% 0 mm 0 W/m2
23:08 -5.6 °C -7.1 °C 1009.7 hPa WNW 9.7 km/h 11.3 km/h 89% 0 mm 0 W/m2
23:14 -5.6 °C -7.1 °C 1010 hPa NW 9.7 km/h 12.9 km/h 89% 0 mm 0 W/m2
23:20 -5.6 °C -7.1 °C 1010 hPa NNE 9.7 km/h 14.5 km/h 89% 0 mm 0 W/m2
23:26 -5.6 °C -7.1 °C 1010 hPa WNW 11.3 km/h 14.5 km/h 89% 0 mm 0 W/m2
23:32 -5.6 °C -7.1 °C 1010 hPa NNW 6.4 km/h 9.7 km/h 89% 0 mm 0 W/m2
23:38 -5.6 °C -7.1 °C 1010 hPa WNW 6.4 km/h 16.1 km/h 89% 0 mm 0 W/m2
23:44 -5.6 °C -7.1 °C 1010 hPa West 6.4 km/h 9.7 km/h 89% 0 mm 0 W/m2
23:50 -5.7 °C -7.2 °C 1010 hPa NW 6.4 km/h 6.4 km/h 89% 0 mm 0 W/m2
23:56 -5.7 °C -7.2 °C 1010 hPa North 6.4 km/h 12.9 km/h 89% 0 mm 0 W/m2
Country Meadow, Clay, NY, USA
Compliments of Weather Underground - 2 mb